Location: Unspecified
(0.0000°N, 0.0000°E)
Time: 12:25:59
(UTC+00:00)

YUBILEINY - Pass Details

Date: 09 December 2017
Orbit: 1478 x 1509 km, 82.5° (Epoch: 22 January)

Event Time Altitude Azimuth Distance (km) Brightness Sun altitude
Rises 04:03:04 0° 199° (SSW) 4,612 ? -25.0°
Reaches altitude 10° 04:06:07 10° 205° (SSW) 3,634 ? -24.3°
Maximum altitude 04:14:12 43° 273° (W) 2,002 ? -22.5°
Enters shadow 04:18:35 26° 325° (NW) 2,598 ? -21.5°
